This is the latest recevied weather packets stored in our database for station/object EA3CO-11. If no packets are shown the sender has not sent any weather packets the latest 10 day(s).
| Time | Temp. | Humidity | Pressure | Rain* | Wind** | Luminosity | Snow |
|---|---|---|---|---|---|---|---|
| 1777661258 | 16.11° C | 91% | 1025.3 hPa | - | - | - | - |
| 1777660358 | 16.11° C | 88% | 1025 hPa | - | - | - | - |
| 1777659458 | 16.11° C | 87% | 1025 hPa | - | - | - | - |
| 1777658558 | 16.67° C | 86% | 1024.8 hPa | - | - | - | - |
| 1777657658 | 16.67° C | 84% | 1024.7 hPa | - | - | - | - |
| 1777656757 | 16.67° C | 82% | 1024.5 hPa | - | - | - | - |
| 1777655857 | 16.67° C | 80% | 1024.5 hPa | - | - | - | - |
| 1777654957 | 17.22° C | 76% | 1024.4 hPa | - | - | - | - |
| 1777654057 | 17.22° C | 73% | 1024.4 hPa | - | - | - | - |
| 1777653157 | 17.78° C | 71% | 1024.4 hPa | - | - | - | - |
| 1777652257 | 18.33° C | 68% | 1024.4 hPa | - | - | - | - |
| 1777651357 | 18.33° C | 66% | 1024.2 hPa | - | - | - | - |
| 1777650457 | 18.33° C | 64% | 1024.3 hPa | - | - | - | - |
| 1777649557 | 19.44° C | 60% | 1024.3 hPa | - | - | - | - |
| 1777648656 | 18.33° C | 60% | 1024.3 hPa | - | - | - | - |
| 1777647756 | 18.89° C | 58% | 1024.2 hPa | - | - | - | - |
| 1777646856 | 19.44° C | 54% | 1024.2 hPa | - | - | - | - |
| 1777645962 | 20° C | 54% | 1024.2 hPa | - | - | - | - |
| 1777645062 | 18.89° C | 55% | 1024.2 hPa | - | - | - | - |
| 1777644162 | 19.44° C | 55% | 1024.4 hPa | - | - | - | - |
| 1777643256 | 20.56° C | 51% | 1024.5 hPa | - | - | - | - |
| 1777642356 | 20.56° C | 51% | 1024.4 hPa | - | - | - | - |
| 1777641455 | 20.56° C | 50% | 1024.4 hPa | - | - | - | - |
| 1777640555 | 21.67° C | 49% | 1024.4 hPa | - | - | - | - |
| 1777639655 | 21.67° C | 48% | 1024.5 hPa | - | - | - | - |
* Rain since midnight (hover to see other rain measurements)
** Current wind speed in m/s (hover to see current wind gust speed)